Location: Heidgraben
(53.7081°N, 9.6576°E)
Time: 20:47:43
(UTC+00:00)

Cosmos 1842 Rocket - Pass Details

Date: 05 July 2020
Orbit: 605 x 634 km, 82.5° (Epoch: 14 August)

Event Time Altitude Azimuth Distance (km) Brightness Sun altitude
Rises 21:38:27 0° 345° (NNW) 2,895 9.0 -10.2°
Reaches altitude 10° 21:40:43 10° 341° (NNW) 1,981 7.8 -10.3°
Maximum altitude 21:44:59 54° 265° (W) 745 4.1 -10.6°
Enters shadow 21:49:02 11° 188° (S) 1,892 5.5 -10.8°
